Athens, TX

12:29 PM CDT on September 19, 2017 (GMT -0500)
Athens

Weather History for KF44 - October, 2012

Change the Weather History Date:

Thursday, October 4, 2012

  Actual Average (KTYR) Record (KTYR)
Temperature  
Mean Temperature 72 °F -  
Max Temperature 85 °F 78 °F 97 °F (1911)
Min Temperature 58 °F 58 °F 33 °F (1975)
Cooling Degree Days 6    
Growing Degree Days 22 (Base 50)    
Moisture  
Dew Point 61 °F    
Average Humidity 71    
Maximum Humidity 97    
Minimum Humidity 47    
Precipitation  
Precipitation 0.00 in - - ()
Sea Level Pressure  
Sea Level Pressure 30.09 in    
Wind  
Wind Speed 3 mph ()    
Max Wind Speed 13 mph    
Max Gust Speed 18 mph    
Visibility 9.6 miles    
Events      
Averages and records for this station are not official NWS values.
T = Trace of Precipitation, MM = Missing Value Source: Averaged Metar Reports

Daily Weather History Graph

Daily Weather History Graph

Search for Another Location

Airport or City:

Trip Planner

Search our weather history database for the weather conditions in past years. The results will help you decide how hot, cold, wet, or windy it might be!

Date:

Astronomy

Oct. 04, 2012 Rise Set
Actual Time 7:19 AM CDT 7:03 PM CDT
Civil Twilight 6:55 AM CDT 7:28 PM CDT
Nautical Twilight 6:26 AM CDT 7:56 PM CDT
Astronomical Twilight 5:58 AM CDT 8:24 PM CDT
Moon 9:55 PM CDT (10/4) 11:22 AM CDT (10/4)
Length of Visible Light 12h 32m
Length of Day
11h 43m
Waning Gibbous, 82% of the Moon is Illuminated
Oct 4
Waning Gibbous
Oct 8
Last Quarter
Oct 15
New
Oct 21
First Quarter
Oct 29
Full

Hourly Weather History & Observations

Time (CDT) Temp. Heat Index Dew Point Humidity Pressure Visibility Wind Dir Wind Speed Gust Speed Precip Events Conditions
12:15 AM 64.0 °F - 56.5 °F 76% 30.05 in 10.0 mi SE 3.5 mph - N/A   Clear
12:35 AM 63.9 °F - 56.7 °F 77% 30.05 in 10.0 mi Calm Calm - N/A   Clear
12:55 AM 63.5 °F - 56.7 °F 78% 30.05 in 10.0 mi SE 3.5 mph - N/A   Clear
1:15 AM 62.6 °F - 56.7 °F 81% 30.05 in 10.0 mi SE 3.5 mph - N/A   Clear
1:35 AM 62.4 °F - 56.8 °F 82% 30.05 in 10.0 mi Calm Calm - N/A   Clear
1:55 AM 62.1 °F - 57.2 °F 84% 30.05 in 10.0 mi Calm Calm - N/A   Clear
2:15 AM 61.5 °F - 57.4 °F 86% 30.05 in 10.0 mi Calm Calm - N/A   Clear
2:35 AM 61.5 °F - 57.6 °F 87% 30.06 in 10.0 mi Calm Calm - N/A   Clear
2:55 AM 61.3 °F - 57.7 °F 88% 30.06 in 10.0 mi Calm Calm - N/A   Clear
3:15 AM 61.0 °F - 58.1 °F 90% 30.06 in 10.0 mi Calm Calm - N/A   Clear
3:35 AM 60.4 °F - 57.9 °F 91% 30.06 in 10.0 mi Calm Calm - N/A   Clear
3:55 AM 60.4 °F - 57.9 °F 91% 30.06 in 10.0 mi Calm Calm - N/A   Clear
4:15 AM 60.1 °F - 58.1 °F 93% 30.07 in 10.0 mi Calm Calm - N/A   Clear
4:35 AM 59.4 °F - 58.1 °F 96% 30.07 in 10.0 mi Calm Calm - N/A   Clear
4:55 AM 59.2 °F - 57.7 °F 95% 30.08 in 10.0 mi Calm Calm - N/A   Clear
5:15 AM 59.4 °F - 57.9 °F 95% 30.09 in 10.0 mi Calm Calm - N/A   Clear
5:35 AM 59.4 °F - 58.1 °F 96% 30.09 in 10.0 mi Calm Calm - N/A   Clear
5:55 AM 59.2 °F - 57.7 °F 95% 30.09 in 10.0 mi Calm Calm - N/A   Clear
6:15 AM 59.2 °F - 57.7 °F 95% 30.10 in 10.0 mi Calm Calm - N/A   Clear
6:35 AM 59.4 °F - 58.1 °F 96% 30.10 in 10.0 mi Calm Calm - N/A   Clear
6:55 AM 59.5 °F - 58.3 °F 96% 30.10 in 10.0 mi Calm Calm - N/A   Clear
7:15 AM 58.6 °F - 57.7 °F 97% 30.11 in 7.0 mi Calm Calm - N/A   Clear
7:35 AM 58.8 °F - 57.7 °F 96% 30.11 in 10.0 mi Calm Calm - N/A   Clear
7:55 AM 59.7 °F - 58.5 °F 96% 30.11 in 10.0 mi Calm Calm - N/A   Clear
8:15 AM 61.5 °F - 59.9 °F 94% 30.12 in 10.0 mi SE 3.5 mph - N/A   Clear
8:35 AM 63.5 °F - 61.0 °F 91% 30.12 in 10.0 mi SE 3.5 mph - N/A   Clear
8:55 AM 65.7 °F - 61.7 °F 87% 30.12 in 10.0 mi SSE 4.6 mph - N/A   Clear
9:15 AM 68.0 °F - 61.9 °F 81% 30.13 in 10.0 mi SE 6.9 mph - N/A   Clear
9:35 AM 69.6 °F - 62.2 °F 77% 30.14 in 10.0 mi SE 4.6 mph - N/A   Clear
9:55 AM 71.6 °F - 62.6 °F 73% 30.14 in 10.0 mi SSE 6.9 mph - N/A   Clear
10:15 AM 73.2 °F - 62.4 °F 69% 30.14 in 10.0 mi SE 5.8 mph - N/A   Scattered Clouds
10:35 AM 75.0 °F - 62.1 °F 64% 30.14 in 10.0 mi SSE 8.1 mph - N/A   Overcast
10:55 AM 76.8 °F - 61.9 °F 60% 30.14 in 10.0 mi SE 8.1 mph - N/A   Scattered Clouds
11:15 AM 77.9 °F - 62.2 °F 58% 30.13 in 10.0 mi SE 10.4 mph - N/A   Clear
11:35 AM 78.6 °F - 63.1 °F 59% 30.13 in 10.0 mi SE 9.2 mph 16.1 mph N/A   Clear
11:55 AM 79.3 °F - 63.7 °F 59% 30.13 in 10.0 mi SSE 9.2 mph - N/A   Clear
12:15 PM 80.4 °F 82.0 °F 63.9 °F 57% 30.12 in 10.0 mi SE 12.7 mph 18.4 mph N/A   Clear
12:35 PM 81.1 °F 82.8 °F 64.4 °F 57% 30.13 in 10.0 mi ESE 6.9 mph - N/A   Clear
12:55 PM 81.7 °F 83.3 °F 64.4 °F 56% 30.12 in 10.0 mi SE 9.2 mph 17.3 mph N/A   Clear
1:35 PM 82.8 °F 84.3 °F 64.8 °F 54% 30.11 in 10.0 mi SSE 10.4 mph - N/A   Clear
1:55 PM 83.1 °F 84.8 °F 64.9 °F 54% 30.11 in 10.0 mi SSE 9.2 mph - N/A   Clear
2:15 PM 83.7 °F 85.3 °F 64.8 °F 53% 30.10 in 10.0 mi South 6.9 mph 16.1 mph N/A   Clear
2:35 PM 83.8 °F 85.3 °F 64.4 °F 52% 30.09 in 10.0 mi ESE 11.5 mph - N/A   Clear
2:55 PM 84.2 °F 85.4 °F 63.9 °F 50% 30.09 in 10.0 mi SE 6.9 mph 16.1 mph N/A   Clear
3:15 PM 84.6 °F 85.9 °F 64.2 °F 50% 30.08 in 10.0 mi SE 8.1 mph - N/A   Clear
3:35 PM 85.1 °F 86.4 °F 64.0 °F 49% 30.08 in 10.0 mi SSE 8.1 mph - N/A   Clear
3:55 PM 85.1 °F 86.4 °F 63.7 °F 49% 30.07 in 0.5 mi SSE 9.2 mph - N/A   Haze
4:15 PM 85.1 °F 85.9 °F 62.6 °F 47% 30.07 in 5.0 mi SSE 8.1 mph - N/A   Haze
4:35 PM 84.9 °F 85.6 °F 62.6 °F 47% 30.07 in 2.0 mi SSE 9.2 mph 16.1 mph N/A   Haze
4:55 PM 84.7 °F 85.6 °F 62.8 °F 48% 30.07 in 10.0 mi SE 8.1 mph 17.3 mph N/A   Clear
5:15 PM 84.4 °F 85.2 °F 63.0 °F 48% 30.07 in 10.0 mi SSE 8.1 mph - N/A   Clear
5:35 PM 84.2 °F 85.2 °F 63.1 °F 49% 30.06 in 10.0 mi SE 9.2 mph 16.1 mph N/A   Clear
5:55 PM 83.5 °F 84.5 °F 63.0 °F 50% 30.06 in 10.0 mi SE 8.1 mph - N/A   Clear
6:15 PM 82.6 °F 83.8 °F 63.1 °F 52% 30.06 in 10.0 mi SE 5.8 mph - N/A   Clear
6:35 PM 81.3 °F 82.5 °F 62.8 °F 53% 30.07 in 10.0 mi SE 4.6 mph - N/A   Clear
6:55 PM 79.7 °F - 62.6 °F 56% 30.07 in 10.0 mi SE 4.6 mph - N/A   Clear
7:15 PM 78.6 °F - 62.2 °F 57% 30.07 in 10.0 mi SE 3.5 mph - N/A   Clear
7:35 PM 77.4 °F - 62.2 °F 59% 30.08 in 10.0 mi Calm Calm - N/A   Scattered Clouds
7:55 PM 76.5 °F - 62.2 °F 61% 30.08 in 10.0 mi Calm Calm - N/A   Mostly Cloudy
8:15 PM 75.7 °F - 63.9 °F 66% 30.09 in 10.0 mi Calm Calm - N/A   Overcast
8:35 PM 75.9 °F - 63.7 °F 66% 30.09 in 10.0 mi Calm Calm - N/A   Overcast
8:55 PM 75.2 °F - 63.5 °F 67% 30.09 in 10.0 mi SE 3.5 mph - N/A   Overcast
9:15 PM 74.5 °F - 62.8 °F 67% 30.09 in 10.0 mi SE 4.6 mph - N/A   Scattered Clouds
9:35 PM 73.8 °F - 63.0 °F 69% 30.09 in 10.0 mi SE 4.6 mph - N/A   Clear
9:55 PM 73.9 °F - 63.0 °F 68% 30.09 in 10.0 mi SE 3.5 mph - N/A   Clear
10:15 PM 73.6 °F - 63.0 °F 69% 30.10 in 10.0 mi SE 3.5 mph - N/A   Clear
10:35 PM 73.0 °F - 63.1 °F 71% 30.10 in 10.0 mi SE 3.5 mph - N/A   Clear
10:55 PM 72.5 °F - 63.1 °F 72% 30.10 in 10.0 mi SSE 4.6 mph - N/A   Clear
11:15 PM 72.1 °F - 63.5 °F 74% 30.10 in 10.0 mi SSE 5.8 mph - N/A   Clear
11:35 PM 72.7 °F - 63.1 °F 72% 30.09 in 10.0 mi South 8.1 mph - N/A   Clear
11:55 PM 73.2 °F - 63.3 °F 71% 30.09 in 10.0 mi South 9.2 mph - N/A   Clear